IRS P6

Satellite information

Favourite Embed

Satellite Type and Status

PAYLOADIN ORBIT

Key statistics

Satellite IRS P6 at a glance.

Uptime

8093

Days in orbit

Revolutions

≈ 14.4

Per day

Orbit

SSO

Sun Synchronous Orbit

Inclination

98.2

Latest

Satellite identification and parameters

Extended collection of information and parameters for IRS P6.

Object identification

Identified? True

Debris? False

Object name: IRS P6

International designator: 2003-046A

Object number (NORAD): 28051

Object ID (CCSDS): 28051

Country: INDIA (IND)

Current information (Y/N): Y

RCS size: LARGE

Orbital parameters

Period: 100.273 minutes

Inclination: 98.2177 deg

SMA: 7149.635 km

Apoapsis: 817.331 km

Periapsis: 725.669 km

RAAN: 26.7248 deg

Eccentricy: 0.00641026

Argument of periapsis: 181.9915 deg

Mean anomaly: 244.6942 deg

Mean motion: 14.36074572 rev/day

Mean motion (dot): 0.00000277 rev/day2

B* drag term: 0.00010670886 1/REarth

Two-line elements (TLE)

Creation date: Dec. 12, 2025, 10:14 a.m.

Reference frame: TEME

Reference center: EARTH

Epoch: Dec. 12, 2025, 7:08 a.m. UTC

TLE line 0: 0 IRS P6

TLE line 1: 1 28051U 03046A 25346.29780273 .00000277 00000-0 10671-3 0 9991

TLE line 2: 2 28051 98.2177 26.7248 0064103 181.9915 244.6942 14.36074572153705

Live tracking on map

Real-time ground track for satellite IRS P6.

In-orbit conjunctions

There are no conjunctions computed for IRS P6, at the moment. Check back to stay up to date, as we update our databases every day.

Go to all conjunctions

Associated space launch

The Resourcesat-1 satellite was launched to ensure systematic and repetitive coverage of the earth’s surface.

IRS P6 was lifted into orbit during the mission ‘PSLV | Resourcesat’, on board a PSLV space rocket.

The launch took place on Oct. 17, 2003, 4:52 a.m. from Satish Dhawan Space Centre First Launch Pad.

For more information about the launch, click the button.

Launch to space PSLV | Resourcesat
PSLV | Resourcesat

Agency: N/A

Status: Launch Successful

Launch date: Oct. 17, 2003, 4:52 a.m. UTC

Rocket: PSLV

Launch pad: Satish Dhawan Space Centre First Launch Pad

Location: Satish Dhawan Space Centre, India

...

Latest news about this satellite

There are no fresh news available about this satellite. Check back as we update our databases every day.


Newsletter sign-up

Weekly statistics, charts and insights to help you stay on top of the space industry.